Terug naar catalogus

DIGUI TONGXIN SHIYAN WEI.

ActiefMilitairPO
NORAD 52718·PAYLOAD·🇨🇳 China
Deze satellietnaam is nog niet bevestigd door officiële bronnen.

Gelanceerd May 20, 2022 vanaf Jiuquan Satellite Launch Center

Loading…

Volgende Passages (komende 24 uur)

TLE

VersSource: Space-Track

Epoch: Sep 14, 2026, 13:39 UTC

1 52718U 22056C   26257.56936509  .00000102  00000-0  52560-4 0  9998
2 52718  86.0097 344.2278 0016840 102.0737 258.2330 14.04400888221436

Volg DIGUI TONGXIN SHIYAN WEI. in realtime met AllMySat

Download on the App Store